Regional Weather Roundup
Issued by NWS

Home | Current Version | Previous Version | Graphics & Text | Print | Product List | Glossary On
Versions: 1 2 3 4 5 6 7 8 9 10 11 12 13 14 15 16 17 18 19 20 21 22 23 24 25 26 27 28 29 30 31 32 33 34 35 36 37 38 39 40 41 42 43 44 45 46 47 48 49 50
759
ASUS43 KLMK 230302
RWRKY
KENTUCKY REGIONAL WEATHER ROUNDUP
NATIONAL WEATHER SERVICE LOUISVILLE KY
1100 PM EDT WED MAR 22 2017

NOTE "FAIR" INDICATES FEW OR NO CLOUDS BELOW 12,000 FEET
WITH NO SIGNIFICANT WEATHER AND/OR OBSTRUCTIONS TO VISIBILITY.

KYZ001>023-026-027-061>063-070>075-230400-
WESTERN AND SOUTH CENTRAL KENTUCKY

CITY           SKY/WX    TMP DP  RH WIND       PRES   REMARKS
PADUCAH        CLEAR     46  22  38 E8        30.35S
HENDERSON      CLEAR     43  18  36 NE12      30.39F
OWENSBORO      CLEAR     44  17  33 E12       30.42R
HOPKINSVILLE   CLOUDY    46  20  36 E9        30.36R
BOWLING GREEN  CLEAR     41  21  44 NE8       30.40R
GLASGOW        NOT AVBL
$$

KYZ024-025-028>034-038-045-046-053-230400-
NORTH CENTRAL KENTUCKY

CITY           SKY/WX    TMP DP  RH WIND       PRES   REMARKS
LOUISVILLE/SDF CLOUDY    40  18  41 NE8       30.45R WCI  34
LOUISVILLE/LOU PTCLDY    39  19  44 NE7       30.46R WCI  34
FORT KNOX      CLOUDY    39  17  41 NE7       30.41R WCI  34
$$

KYZ035>037-039>044-047>052-055>060-089>105-230400-
NORTHEAST KENTUCKY

CITY           SKY/WX    TMP DP  RH WIND       PRES   REMARKS
LEXINGTON      CLEAR     33  19  56 NE12      30.43R WCI  24
COVINGTON      PTCLDY    35  19  52 E12       30.46S WCI  27
FRANKFORT      CLEAR     37  19  48 NE7       30.43S WCI  32
$$

KYZ054-064>069-076>088-106>120-230400-
SOUTHEAST KENTUCKY

CITY           SKY/WX    TMP DP  RH WIND       PRES   REMARKS
JACKSON        CLEAR     37  14  38 NE6       30.40S WCI  32
LONDON         CLEAR     39  14  36 NE6       30.38R WCI  35
SOMERSET       CLEAR     36  19  51 N5        30.40S WCI  32
MIDDLESBORO    CLEAR     41  21  45 CALM      30.37S
MONTICELLO     CLEAR     38  23  55 N14       30.40S WCI  30
$$





USA.gov is the U.S. government's official web portal to all federal, state and local government web resources and services.